This is the latest recevied weather packets stored in our database for station/object BV5AB-13. If no packets are shown the sender has not sent any weather packets the latest 10 day(s).
| Time | Temp. | Humidity | Pressure | Rain* | Wind** | Luminosity | Snow |
|---|---|---|---|---|---|---|---|
| 1777604223 | 25° C | 67% | 1005.1 hPa | 0 mm | - | - | - |
| 1777603624 | 24.44° C | 68% | 1005.2 hPa | 0 mm | - | - | - |
| 1777603024 | 25° C | 68% | 1005.3 hPa | 0 mm | - | - | - |
| 1777602423 | 25° C | 70% | 1005.4 hPa | 0 mm | - | - | - |
| 1777601824 | 24.44° C | 71% | 1005.5 hPa | 0 mm | - | - | - |
| 1777601224 | 23.89° C | 71% | 1005.4 hPa | 0 mm | - | - | - |
| 1777600623 | 23.89° C | 70% | 1005.5 hPa | 0 mm | - | - | - |
| 1777600024 | 24.44° C | 70% | 1005.4 hPa | 0 mm | - | - | - |
| 1777599424 | 23.33° C | 72% | 1005.4 hPa | 0 mm | - | - | - |
| 1777598824 | 23.33° C | 74% | 1005.2 hPa | 0 mm | - | - | - |
| 1777598224 | 22.78° C | 73% | 1005.3 hPa | 0 mm | - | - | - |
| 1777597624 | 22.78° C | 74% | 1005.2 hPa | 0 mm | - | - | - |
| 1777597024 | 22.78° C | 74% | 1005.2 hPa | 0 mm | - | - | - |
| 1777596423 | 22.22° C | 77% | 1005.2 hPa | 0 mm | - | - | - |
| 1777595823 | 22.22° C | 77% | 1005.2 hPa | 0 mm | - | - | - |
| 1777595223 | 21.67° C | 78% | 1005.2 hPa | 0 mm | - | - | - |
| 1777594624 | 22.22° C | 78% | 1005.3 hPa | 0 mm | - | - | - |
| 1777594023 | 21.67° C | 78% | 1005.1 hPa | 0 mm | - | - | - |
| 1777593423 | 21.11° C | 78% | 1005.1 hPa | 0 mm | - | - | - |
| 1777592824 | 20.56° C | 80% | 1005.2 hPa | 0 mm | - | - | - |
| 1777592224 | 20.56° C | 81% | 1005.1 hPa | 0 mm | - | - | - |
| 1777591623 | 20.56° C | 81% | 1005 hPa | 0 mm | - | - | - |
| 1777591024 | 20° C | 82% | 1004.9 hPa | 0 mm | - | - | - |
| 1777590424 | 20° C | 83% | 1005 hPa | 0 mm | - | - | - |
| 1777589823 | 20° C | 83% | 1004.8 hPa | 0 mm | - | - | - |
* Rain latest hour (hover to see other rain measurements)
** Current wind speed in m/s (hover to see current wind gust speed)